RYR6TA LOWW-LIPZ

Flight info

Callsign RYR6TA
Flight time 0h 50m
Altitude 34000
Route RUPET DCT GRZ DCT RADLY DCT OGODI DCT RIFEN DCT BADOP DCT ROSKA P125 TULIK Z71 BASOG
Aircraft A320/M-SDE3FGHIRWY/LB1

Departure

Time 2026-04-21 16:24
Airport Vienna International Airport (LOWW)

Arrival

Time 2026-04-21 17:15
Airport Venice Marco Polo Airport (LIPZ)
Time Latitude Longitude Altitude Speed Heading
2026-04-21 16:10 48.11929 16.55635 610 ft 0 kts 25°
2026-04-21 16:17 48.11911 16.55621 626 ft 4 kts 29°
2026-04-21 16:18 48.11888 16.55600 618 ft 4 kts 37°
2026-04-21 16:18 48.11869 16.55573 623 ft 4 kts 62°
2026-04-21 16:18 48.11865 16.55545 620 ft 1 kts 116°
2026-04-21 16:18 48.11866 16.55539 621 ft 0 kts 116°
2026-04-21 16:20 48.11865 16.55543 620 ft 3 kts 116°
2026-04-21 16:20 48.11791 16.55580 610 ft 19 kts 184°
2026-04-21 16:20 48.11730 16.55686 612 ft 13 kts 117°
2026-04-21 16:21 48.11675 16.55851 617 ft 23 kts 116°
2026-04-21 16:21 48.11602 16.56081 619 ft 25 kts 115°
2026-04-21 16:21 48.11523 16.56324 618 ft 27 kts 116°
2026-04-21 16:21 48.11444 16.56566 620 ft 26 kts 117°
2026-04-21 16:22 48.11360 16.56820 614 ft 28 kts 116°
2026-04-21 16:22 48.11272 16.57088 612 ft 29 kts 116°
2026-04-21 16:22 48.11186 16.57347 614 ft 26 kts 117°
2026-04-21 16:22 48.11104 16.57599 616 ft 24 kts 118°
2026-04-21 16:23 48.11028 16.57640 615 ft 1 kts 191°
2026-04-21 16:23 48.11027 16.57638 610 ft 0 kts 201°
2026-04-21 16:23 48.11001 16.57617 610 ft 15 kts 207°
2026-04-21 16:23 48.10963 16.57384 615 ft 34 kts 295°
2026-04-21 16:24 48.11145 16.56826 618 ft 93 kts 296°
2026-04-21 16:24 48.11516 16.55683 622 ft 149 kts 296°
2026-04-21 16:24 48.11996 16.54230 1041 ft 160 kts 302°
2026-04-21 16:24 48.12342 16.52649 1783 ft 167 kts 269°
2026-04-21 16:25 48.11835 16.50980 2271 ft 194 kts 227°
2026-04-21 16:25 48.10636 16.49788 2603 ft 221 kts 213°
2026-04-21 16:25 48.09277 16.48587 3346 ft 226 kts 213°
2026-04-21 16:25 48.07925 16.47366 4271 ft 228 kts 215°
2026-04-21 16:26 48.06638 16.45851 4834 ft 250 kts 223°
2026-04-21 16:26 48.05266 16.44076 4983 ft 273 kts 224°
2026-04-21 16:26 48.03825 16.42188 5013 ft 277 kts 224°
2026-04-21 16:26 48.02363 16.40271 5218 ft 285 kts 223°
2026-04-21 16:27 48.00879 16.38326 6319 ft 282 kts 223°
2026-04-21 16:27 47.99398 16.36392 7300 ft 283 kts 224°
2026-04-21 16:27 47.97913 16.34454 8258 ft 284 kts 224°
2026-04-21 16:27 47.96427 16.32511 9218 ft 285 kts 224°
2026-04-21 16:28 47.94913 16.30574 10163 ft 287 kts 223°
2026-04-21 16:28 47.93310 16.28619 10549 ft 310 kts 221°
2026-04-21 16:28 47.91568 16.26545 10901 ft 329 kts 221°
2026-04-21 16:28 47.89754 16.24409 11587 ft 335 kts 221°
2026-04-21 16:29 47.87938 16.22273 12380 ft 339 kts 221°
2026-04-21 16:29 47.86081 16.20084 13188 ft 342 kts 221°
2026-04-21 16:29 47.84209 16.17872 13979 ft 345 kts 221°
2026-04-21 16:29 47.82321 16.15635 14676 ft 348 kts 221°
2026-04-21 16:30 47.80424 16.13380 15372 ft 351 kts 221°
2026-04-21 16:30 47.78512 16.11107 16069 ft 354 kts 221°
2026-04-21 16:30 47.76584 16.08815 16750 ft 356 kts 222°
2026-04-21 16:30 47.74641 16.06504 17457 ft 359 kts 222°
2026-04-21 16:31 47.72683 16.04175 18146 ft 361 kts 222°
2026-04-21 16:31 47.70739 16.01873 18754 ft 364 kts 222°
2026-04-21 16:31 47.68748 15.99526 19343 ft 367 kts 222°
2026-04-21 16:31 47.66741 15.97161 19951 ft 369 kts 223°
2026-04-21 16:32 47.64727 15.94785 20546 ft 372 kts 223°
2026-04-21 16:32 47.62695 15.92388 21136 ft 374 kts 223°
2026-04-21 16:32 47.60648 15.89973 21703 ft 377 kts 223°
2026-04-21 16:32 47.58590 15.87547 22282 ft 380 kts 223°
2026-04-21 16:33 47.56510 15.85102 22872 ft 383 kts 223°
2026-04-21 16:33 47.54445 15.82684 23423 ft 385 kts 224°
2026-04-21 16:33 47.52334 15.80213 23905 ft 388 kts 224°
2026-04-21 16:33 47.50220 15.77710 24349 ft 390 kts 224°
2026-04-21 16:34 47.48103 15.75189 24792 ft 393 kts 223°
2026-04-21 16:34 47.45769 15.72980 25222 ft 403 kts 213°
2026-04-21 16:34 47.43168 15.71338 25628 ft 411 kts 207°
2026-04-21 16:34 47.40482 15.69836 26026 ft 413 kts 207°
2026-04-21 16:35 47.37787 15.68339 26413 ft 416 kts 207°
2026-04-21 16:35 47.35106 15.66852 26762 ft 418 kts 207°
2026-04-21 16:35 47.32378 15.65337 27116 ft 421 kts 207°
2026-04-21 16:35 47.29635 15.63813 27480 ft 423 kts 207°
2026-04-21 16:36 47.26876 15.62277 27832 ft 425 kts 208°
2026-04-21 16:36 47.24106 15.60736 28149 ft 427 kts 208°
2026-04-21 16:36 47.21319 15.59189 28490 ft 429 kts 208°
2026-04-21 16:36 47.18517 15.57631 28824 ft 432 kts 208°
2026-04-21 16:37 47.15698 15.56067 29141 ft 434 kts 208°
2026-04-21 16:37 47.12864 15.54497 29465 ft 437 kts 208°
2026-04-21 16:37 47.10013 15.52919 29773 ft 439 kts 208°
2026-04-21 16:37 47.07188 15.51357 30076 ft 441 kts 208°
2026-04-21 16:38 47.04308 15.49767 30326 ft 443 kts 208°
2026-04-21 16:38 47.01417 15.48178 30561 ft 445 kts 208°
2026-04-21 16:38 46.98511 15.46583 30788 ft 447 kts 208°
2026-04-21 16:38 46.95615 15.44932 31006 ft 445 kts 212°
2026-04-21 16:39 46.92880 15.42871 31216 ft 442 kts 216°
2026-04-21 16:39 46.90168 15.40738 31494 ft 442 kts 216°
2026-04-21 16:39 46.87457 15.38614 31808 ft 442 kts 216°
2026-04-21 16:39 46.84749 15.36502 32111 ft 441 kts 216°
2026-04-21 16:40 46.82076 15.34423 32410 ft 441 kts 216°
2026-04-21 16:40 46.79370 15.32320 32710 ft 441 kts 216°
2026-04-21 16:40 46.76671 15.30221 33016 ft 440 kts 216°
2026-04-21 16:40 46.73969 15.28118 33306 ft 440 kts 216°
2026-04-21 16:41 46.71272 15.26023 33618 ft 439 kts 216°
2026-04-21 16:41 46.68573 15.23929 33923 ft 439 kts 216°
2026-04-21 16:41 46.66008 15.21602 34066 ft 429 kts 225°
2026-04-21 16:41 46.63804 15.18784 34076 ft 415 kts 234°
2026-04-21 16:42 46.62006 15.15587 34078 ft 405 kts 241°
2026-04-21 16:42 46.58729 15.08984 34071 ft 405 kts 241°
2026-04-21 16:43 46.55402 15.02375 34068 ft 405 kts 240°
2026-04-21 16:43 46.52073 14.95782 34066 ft 405 kts 240°
2026-04-21 16:44 46.48757 14.89216 34054 ft 405 kts 241°
2026-04-21 16:44 46.45421 14.82619 34049 ft 405 kts 241°
2026-04-21 16:45 46.42110 14.76092 34030 ft 404 kts 240°
2026-04-21 16:45 46.38773 14.69530 34029 ft 405 kts 240°
2026-04-21 16:46 46.35429 14.62967 34028 ft 404 kts 240°
2026-04-21 16:46 46.32084 14.56417 34029 ft 404 kts 240°
2026-04-21 16:47 46.28759 14.49927 34040 ft 405 kts 240°
2026-04-21 16:47 46.25413 14.43401 34039 ft 404 kts 240°
2026-04-21 16:48 46.22070 14.36900 34036 ft 403 kts 240°
2026-04-21 16:48 46.18724 14.30408 34032 ft 403 kts 240°
2026-04-21 16:49 46.15376 14.23933 34031 ft 402 kts 240°
2026-04-21 16:49 46.12046 14.17509 34029 ft 403 kts 240°
2026-04-21 16:50 46.08688 14.11049 34138 ft 406 kts 240°
2026-04-21 16:50 46.06997 14.07785 34032 ft 407 kts 240°
2026-04-21 16:50 46.05298 14.04515 34014 ft 407 kts 240°
2026-04-21 16:51 46.01900 13.97999 33998 ft 408 kts 240°
2026-04-21 16:51 45.98509 13.91532 33987 ft 408 kts 240°
2026-04-21 16:52 45.95531 13.84718 33983 ft 400 kts 247°
2026-04-21 16:52 45.92748 13.77798 33995 ft 400 kts 247°
2026-04-21 16:53 45.89953 13.70903 33992 ft 399 kts 247°
2026-04-21 16:53 45.87157 13.64024 33989 ft 398 kts 247°
2026-04-21 16:54 45.84099 13.57432 33995 ft 408 kts 236°
2026-04-21 16:54 45.82148 13.54451 33804 ft 410 kts 235°
2026-04-21 16:54 45.80178 13.51457 32798 ft 415 kts 235°
2026-04-21 16:54 45.78222 13.48500 32422 ft 405 kts 235°
2026-04-21 16:55 45.76289 13.45593 31864 ft 400 kts 236°
2026-04-21 16:55 45.74385 13.42729 31334 ft 395 kts 236°
2026-04-21 16:55 45.72508 13.39898 30800 ft 390 kts 236°
2026-04-21 16:55 45.70653 13.37096 30280 ft 386 kts 236°
2026-04-21 16:56 45.68814 13.34319 29667 ft 383 kts 236°
2026-04-21 16:56 45.67016 13.31601 29033 ft 380 kts 236°
2026-04-21 16:56 45.65211 13.28871 28423 ft 376 kts 236°
2026-04-21 16:56 45.63419 13.26164 27835 ft 373 kts 236°
2026-04-21 16:57 45.61641 13.23491 27264 ft 370 kts 236°
2026-04-21 16:57 45.59876 13.20847 26708 ft 367 kts 235°
2026-04-21 16:57 45.58123 13.18219 26166 ft 364 kts 235°
2026-04-21 16:57 45.56384 13.15613 25638 ft 361 kts 235°
2026-04-21 16:58 45.54661 13.13029 25125 ft 358 kts 235°
2026-04-21 16:58 45.52968 13.10492 24633 ft 356 kts 235°
2026-04-21 16:58 45.51266 13.07952 24134 ft 354 kts 234°
2026-04-21 16:58 45.49569 13.05426 23663 ft 352 kts 234°
2026-04-21 16:59 45.47886 13.02920 23109 ft 350 kts 234°
2026-04-21 16:59 45.46158 13.00480 22549 ft 353 kts 227°
2026-04-21 16:59 45.44152 12.98420 22012 ft 356 kts 222°
2026-04-21 16:59 45.42104 12.96452 21486 ft 354 kts 221°
2026-04-21 17:00 45.40069 12.94494 20977 ft 352 kts 221°
2026-04-21 17:00 45.38042 12.92544 20471 ft 350 kts 221°
2026-04-21 17:00 45.36710 12.91265 20144 ft 349 kts 221°
2026-04-21 17:00 45.34025 12.88689 19510 ft 347 kts 220°
2026-04-21 17:01 45.32149 12.86659 19050 ft 339 kts 229°
2026-04-21 17:01 45.30617 12.84171 18587 ft 331 kts 240°
2026-04-21 17:01 45.29430 12.81405 18115 ft 327 kts 244°
2026-04-21 17:01 45.28259 12.78642 17583 ft 328 kts 240°
2026-04-21 17:02 45.26919 12.76018 17082 ft 328 kts 238°
2026-04-21 17:02 45.25580 12.73412 16593 ft 327 kts 238°
2026-04-21 17:02 45.24244 12.70803 16111 ft 326 kts 238°
2026-04-21 17:02 45.22914 12.68201 15659 ft 325 kts 238°
2026-04-21 17:03 45.21592 12.65610 15201 ft 324 kts 238°
2026-04-21 17:03 45.20271 12.63022 14753 ft 323 kts 238°
2026-04-21 17:03 45.18973 12.60482 14320 ft 323 kts 238°
2026-04-21 17:03 45.17654 12.57909 13891 ft 322 kts 237°
2026-04-21 17:04 45.16337 12.55348 13412 ft 321 kts 237°
2026-04-21 17:04 45.15022 12.52790 12928 ft 320 kts 237°
2026-04-21 17:04 45.13712 12.50245 12444 ft 320 kts 237°
2026-04-21 17:04 45.12572 12.47583 11964 ft 315 kts 250°
2026-04-21 17:05 45.11762 12.44698 11474 ft 314 kts 251°
2026-04-21 17:05 45.10962 12.41815 11000 ft 314 kts 251°
2026-04-21 17:05 45.10165 12.38941 10532 ft 314 kts 251°
2026-04-21 17:05 45.09390 12.36052 10066 ft 313 kts 255°
2026-04-21 17:06 45.09131 12.33104 9848 ft 300 kts 275°
2026-04-21 17:06 45.09527 12.30284 9705 ft 286 kts 292°
2026-04-21 17:06 45.10468 12.27875 9411 ft 278 kts 310°
2026-04-21 17:06 45.11831 12.25973 9004 ft 275 kts 320°
2026-04-21 17:07 45.12793 12.24794 8708 ft 276 kts 320°
2026-04-21 17:07 45.14725 12.22417 8155 ft 275 kts 320°
2026-04-21 17:07 45.16164 12.20639 7733 ft 275 kts 320°
2026-04-21 17:07 45.17592 12.18867 7312 ft 274 kts 320°
2026-04-21 17:08 45.19019 12.17095 6871 ft 275 kts 320°
2026-04-21 17:08 45.20460 12.15304 6392 ft 277 kts 320°
2026-04-21 17:08 45.21924 12.13483 5769 ft 283 kts 319°
2026-04-21 17:08 45.23394 12.11652 5276 ft 284 kts 319°
2026-04-21 17:09 45.26383 12.08270 4880 ft 261 kts 339°
2026-04-21 17:09 45.28091 12.07855 4766 ft 243 kts
2026-04-21 17:09 45.29627 12.08572 4668 ft 226 kts 36°
2026-04-21 17:10 45.30811 12.09966 4440 ft 219 kts 44°
2026-04-21 17:10 45.31920 12.11387 4155 ft 217 kts 44°
2026-04-21 17:10 45.33038 12.12822 3837 ft 216 kts 44°
2026-04-21 17:10 45.34151 12.14243 3468 ft 213 kts 44°
2026-04-21 17:11 45.35246 12.15639 3057 ft 208 kts 44°
2026-04-21 17:11 45.36337 12.17031 3000 ft 212 kts 44°
2026-04-21 17:11 45.37441 12.18441 3007 ft 214 kts 44°
2026-04-21 17:11 45.38544 12.19849 2859 ft 213 kts 44°
2026-04-21 17:12 45.39648 12.21259 2623 ft 212 kts 44°
2026-04-21 17:12 45.40742 12.22658 2341 ft 211 kts 44°
2026-04-21 17:12 45.41791 12.23998 2075 ft 199 kts 44°
2026-04-21 17:12 45.42782 12.25267 1833 ft 185 kts 44°
2026-04-21 17:13 45.43708 12.26452 1565 ft 172 kts 44°
2026-04-21 17:13 45.44545 12.27523 1355 ft 153 kts 44°
2026-04-21 17:13 45.45302 12.28504 1124 ft 142 kts 45°
2026-04-21 17:13 45.46008 12.29432 864 ft 137 kts 44°
2026-04-21 17:14 45.46734 12.30341 656 ft 138 kts 43°
2026-04-21 17:14 45.47454 12.31238 477 ft 139 kts 44°
2026-04-21 17:14 45.48166 12.32172 354 ft 139 kts 45°
2026-04-21 17:14 45.48884 12.33086 209 ft 139 kts 45°
2026-04-21 17:15 45.49598 12.34018 36 ft 138 kts 44°
2026-04-21 17:15 45.50243 12.34855 14 ft 108 kts 41°
2026-04-21 17:15 45.50677 12.35370 16 ft 47 kts 32°
2026-04-21 17:15 45.50882 12.35550 18 ft 22 kts 346°
2026-04-21 17:16 45.50993 12.35542 15 ft 8 kts 305°
2026-04-21 17:16 45.50989 12.35427 18 ft 21 kts 258°
2026-04-21 17:16 45.50941 12.35189 19 ft 15 kts 219°
2026-04-21 17:16 45.50832 12.35048 18 ft 24 kts 222°
2026-04-21 17:17 45.50701 12.34876 16 ft 26 kts 225°
2026-04-21 17:17 45.50609 12.34693 15 ft 20 kts 262°
2026-04-21 17:17 45.50598 12.34498 16 ft 20 kts 265°
2026-04-21 17:17 45.50637 12.34337 15 ft 15 kts 311°
2026-04-21 17:18 45.50675 12.34320 14 ft 3 kts 41°
2026-04-21 17:18 45.50685 12.34345 15 ft 4 kts 74°
2026-04-21 17:18 45.50691 12.34390 15 ft 1 kts 80°
2026-04-21 17:18 45.50691 12.34393 15 ft 0 kts 80°